KLM55T EHEH-EHRD

Flight info

Callsign KLM55T
Flight time 0h 19m
Altitude 6000
Route INKET
Aircraft A20N/M-SDE2E3FGHIRWXY/LB1

Departure

Time 2026-05-04 03:59
Airport Eindhoven Airport (EHEH)

Arrival

Time 2026-05-04 04:18
Airport Rotterdam The Hague Airport (EHRD)
Time Latitude Longitude Altitude Speed Heading
2026-05-04 03:38 51.45860 5.39045 75 ft 0 kts 126°
2026-05-04 03:52 51.45865 5.39032 62 ft 2 kts 123°
2026-05-04 03:52 51.45874 5.39010 68 ft 2 kts 122°
2026-05-04 03:53 51.45882 5.38988 71 ft 2 kts 117°
2026-05-04 03:53 51.45889 5.38964 67 ft 2 kts 100°
2026-05-04 03:53 51.45887 5.38939 68 ft 2 kts 46°
2026-05-04 03:53 51.45881 5.38930 66 ft 0 kts 37°
2026-05-04 03:54 51.45881 5.38929 66 ft 0 kts 37°
2026-05-04 03:54 51.45882 5.38930 66 ft 0 kts 37°
2026-05-04 03:55 51.45885 5.38934 68 ft 0 kts 37°
2026-05-04 03:55 51.45896 5.38948 67 ft 5 kts 39°
2026-05-04 03:56 51.45943 5.38991 74 ft 10 kts
2026-05-04 03:56 51.45993 5.38934 69 ft 9 kts 311°
2026-05-04 03:56 51.46028 5.38857 73 ft 8 kts 304°
2026-05-04 03:56 51.46043 5.38822 75 ft 0 kts 304°
2026-05-04 03:57 51.46064 5.38773 72 ft 12 kts 306°
2026-05-04 03:57 51.46072 5.38635 84 ft 14 kts 220°
2026-05-04 03:57 51.45991 5.38545 72 ft 15 kts 215°
2026-05-04 03:58 51.45925 5.38469 74 ft 0 kts 214°
2026-05-04 03:58 51.45818 5.38352 70 ft 59 kts 215°
2026-05-04 03:58 51.45262 5.37730 85 ft 133 kts 214°
2026-05-04 03:59 51.44396 5.36758 451 ft 163 kts 214°
2026-05-04 03:59 51.43417 5.35653 1067 ft 176 kts 214°
2026-05-04 03:59 51.42428 5.34569 2169 ft 168 kts 215°
2026-05-04 03:59 51.41434 5.33510 2969 ft 184 kts 214°
2026-05-04 04:00 51.40260 5.32274 3286 ft 223 kts 214°
2026-05-04 04:00 51.38813 5.30744 3146 ft 277 kts 217°
2026-05-04 04:00 51.37460 5.28202 2957 ft 323 kts 242°
2026-05-04 04:00 51.36811 5.24648 3146 ft 334 kts 264°
2026-05-04 04:01 51.37107 5.20883 3835 ft 345 kts 287°
2026-05-04 04:01 51.38217 5.17643 4490 ft 319 kts 308°
2026-05-04 04:01 51.39877 5.15520 4768 ft 297 kts 332°
2026-05-04 04:01 51.41812 5.14769 4880 ft 280 kts 358°
2026-05-04 04:02 51.43726 5.14784 4916 ft 277 kts 353°
2026-05-04 04:02 51.45682 5.14449 4945 ft 298 kts 350°
2026-05-04 04:02 51.47762 5.13995 4920 ft 297 kts 349°
2026-05-04 04:02 51.49750 5.13584 4916 ft 277 kts 352°
2026-05-04 04:03 51.51654 5.13229 4955 ft 278 kts 351°
2026-05-04 04:03 51.53579 5.12892 4937 ft 277 kts 351°
2026-05-04 04:03 51.55498 5.12576 4937 ft 276 kts 351°
2026-05-04 04:03 51.57460 5.12262 4941 ft 295 kts 352°
2026-05-04 04:04 51.59504 5.11936 4937 ft 299 kts 352°
2026-05-04 04:04 51.61550 5.11422 4932 ft 296 kts 339°
2026-05-04 04:04 51.63329 5.09828 5169 ft 293 kts 315°
2026-05-04 04:04 51.64738 5.07418 5505 ft 294 kts 309°
2026-05-04 04:05 51.66098 5.04986 5626 ft 290 kts 308°
2026-05-04 04:05 51.67450 5.02560 5729 ft 292 kts 308°
2026-05-04 04:05 51.68788 5.00152 5838 ft 292 kts 308°
2026-05-04 04:05 51.70149 4.97700 5926 ft 293 kts 308°
2026-05-04 04:06 51.71509 4.95245 5935 ft 292 kts 308°
2026-05-04 04:06 51.72865 4.92795 5933 ft 292 kts 308°
2026-05-04 04:06 51.74216 4.90351 5933 ft 292 kts 308°
2026-05-04 04:06 51.75569 4.87902 5930 ft 292 kts 308°
2026-05-04 04:07 51.76925 4.85447 5933 ft 292 kts 308°
2026-05-04 04:07 51.78263 4.83018 5922 ft 294 kts 309°
2026-05-04 04:07 51.79614 4.80557 5923 ft 291 kts 308°
2026-05-04 04:07 51.80934 4.78014 5921 ft 295 kts 306°
2026-05-04 04:08 51.82087 4.75318 5917 ft 290 kts 298°
2026-05-04 04:08 51.83162 4.72502 5915 ft 293 kts 300°
2026-05-04 04:08 51.84264 4.69748 5913 ft 290 kts 301°
2026-05-04 04:08 51.85355 4.67004 5909 ft 290 kts 300°
2026-05-04 04:09 51.86432 4.64242 5910 ft 290 kts 300°
2026-05-04 04:09 51.87486 4.61496 5910 ft 290 kts 299°
2026-05-04 04:09 51.88467 4.58651 5910 ft 288 kts 288°
2026-05-04 04:09 51.88758 4.55489 5912 ft 284 kts 264°
2026-05-04 04:10 51.88215 4.52482 5910 ft 273 kts 240°
2026-05-04 04:10 51.87112 4.50102 5910 ft 257 kts 231°
2026-05-04 04:10 51.85974 4.47857 5842 ft 260 kts 231°
2026-05-04 04:10 51.84809 4.45542 6038 ft 268 kts 231°
2026-05-04 04:11 51.83636 4.43206 5977 ft 274 kts 231°
2026-05-04 04:11 51.82418 4.40780 6068 ft 277 kts 231°
2026-05-04 04:11 51.81217 4.38390 5911 ft 268 kts 231°
2026-05-04 04:11 51.80076 4.36125 5910 ft 254 kts 231°
2026-05-04 04:12 51.78953 4.33895 5900 ft 261 kts 231°
2026-05-04 04:12 51.77803 4.31614 5818 ft 258 kts 231°
2026-05-04 04:12 51.76691 4.29406 5734 ft 248 kts 232°
2026-05-04 04:12 51.75962 4.26949 5498 ft 243 kts 258°
2026-05-04 04:13 51.76077 4.24224 5062 ft 250 kts 287°
2026-05-04 04:13 51.77051 4.21877 4641 ft 257 kts 316°
2026-05-04 04:13 51.78577 4.20436 4350 ft 251 kts 334°
2026-05-04 04:13 51.80245 4.19794 4237 ft 244 kts 355°
2026-05-04 04:14 51.81904 4.20006 4150 ft 235 kts
2026-05-04 04:14 51.83455 4.20438 4041 ft 223 kts
2026-05-04 04:14 51.84966 4.20784 3831 ft 219 kts
2026-05-04 04:14 51.86387 4.21771 3348 ft 229 kts 38°
2026-05-04 04:15 51.87499 4.23658 2887 ft 235 kts 54°
2026-05-04 04:15 51.88411 4.25852 2522 ft 231 kts 59°
2026-05-04 04:15 51.89244 4.27958 2217 ft 212 kts 57°
2026-05-04 04:15 51.90001 4.29848 1955 ft 189 kts 58°
2026-05-04 04:16 51.90677 4.31528 1715 ft 174 kts 58°
2026-05-04 04:16 51.91316 4.33124 1470 ft 164 kts 58°
2026-05-04 04:16 51.91925 4.34641 1264 ft 157 kts 58°
2026-05-04 04:16 51.92523 4.36130 1041 ft 157 kts 58°
2026-05-04 04:17 51.93098 4.37565 825 ft 147 kts 58°
2026-05-04 04:17 51.93633 4.38901 642 ft 142 kts 58°
2026-05-04 04:17 51.94167 4.40231 412 ft 136 kts 56°
2026-05-04 04:17 51.94672 4.41480 247 ft 127 kts 58°
2026-05-04 04:18 51.95160 4.42699 89 ft 129 kts 59°
2026-05-04 04:18 51.95633 4.43887 -2 ft 119 kts 60°
2026-05-04 04:18 51.95992 4.44784 -5 ft 55 kts 57°
2026-05-04 04:18 51.96075 4.44988 -5 ft 23 kts 57°
2026-05-04 04:19 51.96151 4.45291 -5 ft 27 kts 112°
2026-05-04 04:19 51.96108 4.45383 -5 ft 0 kts 148°
2026-05-04 04:23 51.96104 4.45387 -5 ft 7 kts 149°
2026-05-04 04:23 51.96025 4.45355 -6 ft 16 kts 230°
2026-05-04 04:24 51.96003 4.45304 -6 ft 17 kts 236°